Whiteclay, NE

1:01 AM MDT on July 27, 2016 (GMT -0600)
Pine Ridge

Weather History for KIEN - December, 2013

Change the Weather History Date:

Monday, December 2, 2013

  Actual Average Record
Temperature  
Mean Temperature 41 °F 26 °F  
Max Temperature 53 °F 39 °F 70 °F (1998)
Min Temperature 29 °F 13 °F -2 °F (2006)
Degree Days  
Heating Degree Days 24 39  
Month to date heating degree days 52 78  
Since 1 July heating degree days 1767 1768  
Cooling Degree Days 0 0  
Month to date cooling degree days 0 0  
Year to date cooling degree days 804 717  
Moisture  
Dew Point 29 °F    
Average Humidity 65    
Maximum Humidity 85    
Minimum Humidity 44    
Precipitation  
Precipitation 0.00 in 0.01 in 0.05 in (2002)
Month to date precipitation 0.00 0.02  
Year to date precipitation 19.96 17.19  
Sea Level Pressure  
Sea Level Pressure 29.59 in    
Wind  
Wind Speed 4 mph (NNE)    
Max Wind Speed 14 mph    
Max Gust Speed 17 mph    
Visibility 10 miles    
Events      
T = Trace of Precipitation, MM = Missing Value Source: NWS Daily Summary

Daily Weather History Graph

Daily Weather History Graph

Search for Another Location

Airport or City:

Trip Planner

Search our weather history database for the weather conditions in past years. The results will help you decide how hot, cold, wet, or windy it might be!

Date:

Astronomy

Dec. 02, 2013 Rise Set
Actual Time 7:03 AM MST 4:16 PM MST
Civil Twilight 6:31 AM MST 4:47 PM MST
Nautical Twilight 5:55 AM MST 5:23 PM MST
Astronomical Twilight 5:21 AM MST 5:57 PM MST
Moon 6:29 AM MST (12/2) 4:21 PM MST (12/2)
Length of Visible Light 10h 16m
Length of Day
9h 13m
Waning Crescent, 0% of the Moon is Illuminated
Dec 2
Waning Crescent
Dec 2
New
Dec 9
First Quarter
Dec 17
Full
Dec 25
Last Quarter

Hourly Weather History & Observations

Time (MST) Temp. Windchill Dew Point Humidity Pressure Visibility Wind Dir Wind Speed Gust Speed Precip Events Conditions
12:52 AM 42.1 °F - 28.9 °F 60% 29.69 in 10.0 mi Calm Calm - N/A   Mostly Cloudy
1:52 AM 41.0 °F 35.8 °F 30.0 °F 65% 29.70 in 10.0 mi West 8.1 mph - N/A   Overcast
2:52 AM 36.0 °F 31.1 °F 28.0 °F 73% 29.70 in 10.0 mi SW 5.8 mph - N/A   Clear
3:52 AM 33.1 °F - 27.0 °F 78% 29.70 in 10.0 mi Calm Calm - N/A   Clear
4:52 AM 32.0 °F - 26.1 °F 79% 29.68 in 10.0 mi Calm Calm - N/A   Clear
5:52 AM 41.0 °F - 28.9 °F 62% 29.64 in 10.0 mi Calm Calm - N/A   Mostly Cloudy
6:52 AM 41.0 °F 39.0 °F 28.9 °F 62% 29.62 in 10.0 mi NNW 3.5 mph - N/A   Overcast
7:52 AM 42.1 °F 39.2 °F 30.0 °F 62% 29.63 in 10.0 mi West 4.6 mph - N/A   Scattered Clouds
8:52 AM 48.9 °F - 32.0 °F 52% 29.62 in 10.0 mi Calm Calm - N/A   Overcast
9:52 AM 51.1 °F - 32.0 °F 48% 29.59 in 10.0 mi West 4.6 mph - N/A   Scattered Clouds
10:52 AM 51.1 °F - 32.0 °F 48% 29.57 in 10.0 mi WSW 4.6 mph - N/A   Clear
11:52 AM 52.0 °F - 30.9 °F 45% 29.55 in 10.0 mi WSW 5.8 mph - N/A   Clear
12:52 PM 52.0 °F - 30.0 °F 43% 29.51 in 9.0 mi West 4.6 mph - N/A   Clear
1:52 PM 51.1 °F - 32.0 °F 48% 29.51 in 6.0 mi Calm Calm - N/A   Haze
2:52 PM 52.0 °F - 30.9 °F 45% 29.52 in 10.0 mi Calm Calm - N/A   Clear
3:52 PM 45.0 °F 43.5 °F 30.0 °F 56% 29.54 in 10.0 mi SSE 3.5 mph - N/A   Clear
4:52 PM 36.0 °F 32.1 °F 28.0 °F 73% 29.56 in 10.0 mi ENE 4.6 mph - N/A   Clear
5:52 PM 34.0 °F 28.8 °F 27.0 °F 75% 29.55 in 10.0 mi ENE 5.8 mph - N/A   Clear
6:52 PM 32.0 °F 26.4 °F 27.0 °F 82% 29.55 in 10.0 mi ENE 5.8 mph - N/A   Clear
7:52 PM 32.0 °F 24.8 °F 28.0 °F 85% 29.54 in 10.0 mi ENE 8.1 mph - N/A   Clear
8:52 PM 33.1 °F 27.7 °F 28.0 °F 82% 29.52 in 4.0 mi ENE 5.8 mph - N/A   Haze
9:52 PM 35.1 °F 29.3 °F 28.9 °F 78% 29.52 in 10.0 mi ENE 6.9 mph - N/A   Scattered Clouds
10:52 PM 34.0 °F 26.0 °F 28.9 °F 82% 29.52 in 10.0 mi ENE 10.4 mph - N/A   Partly Cloudy
11:52 PM 32.0 °F 22.5 °F 28.0 °F 85% 29.53 in 10.0 mi ENE 12.7 mph - N/A   Clear